KE6AFE Weather Reports


time (UTC)temp
C
wind
direction
speed
KPH
gust
KPH
rain 1hr
cm
rain 24hr
cm
rain mn
cm
humidity
%
barometer
mb
20260505000530 20 1 0.0 0.0 0.00 0.00 0.00 45 1015.9
20260504235520 21 1 0.0 0.0 0.00 0.00 0.00 45 1015.8
20260504234510 21 1 0.0 0.0 0.00 0.00 0.00 45 1015.9
20260504233500 21 2 0.0 0.0 0.00 0.00 0.00 42 1015.9
20260504232450 21 1 0.0 0.0 0.00 0.00 0.00 44 1016.0
20260504231440 21 1 0.0 0.0 0.00 0.00 0.00 46 1016.0
20260504230430 21 1 0.0 0.0 0.00 0.00 0.00 46 1016.0
20260504225420 21 1 0.0 0.0 0.00 0.00 0.00 47 1016.0
20260504224410 21 1 0.0 0.0 0.00 0.00 0.00 46 1016.1
20260504223400 21 2 0.0 0.0 0.00 0.00 0.00 47 1016.2
20260504222350 21 1 0.0 0.0 0.00 0.00 0.00 46 1016.1
20260504221340 21 1 0.0 0.0 0.00 0.00 0.00 46 1016.3
20260504220330 21 1 0.0 0.0 0.00 0.00 0.00 46 1016.3
20260504215320 21 1 0.0 0.0 0.00 0.00 0.00 47 1016.5
20260504214310 21 1 0.0 0.0 0.00 0.00 0.00 48 1016.4
20260504213300 21 1 0.0 0.0 0.00 0.00 0.00 48 1016.5
20260504212249 21 1 0.0 0.0 0.00 0.00 0.00 48 1016.7
20260504211240 21 1 0.0 0.0 0.00 0.00 0.00 49 1016.7
20260504210229 21 1 0.0 0.0 0.00 0.00 0.00 51 1016.8
20260504205220 21 1 0.0 0.0 0.00 0.00 0.00 52 1016.7
20260504204210 20 2 0.0 0.0 0.00 0.00 0.00 52 1016.7
20260504203158 20 1 0.0 0.0 0.00 0.00 0.00 53 1016.7
20260504202148 20 1 0.0 0.0 0.00 0.00 0.00 53 1016.7
20260504201138 20 1 0.0 0.0 0.00 0.00 0.00 54 1016.8
20260504200128 20 1 0.0 0.0 0.00 0.00 0.00 53 1016.8
20260504195118 20 1 0.0 0.0 0.00 0.00 0.00 53 1016.7
20260504194108 20 1 0.0 0.0 0.00 0.00 0.00 55 1016.7
20260504193058 20 1 0.0 0.0 0.00 0.00 0.00 55 1016.7
20260504192048 20 1 0.0 0.0 0.00 0.00 0.00 55 1016.6
20260504191038 19 1 0.0 0.0 0.00 0.00 0.00 57 1016.7
20260504190028 19 1 0.0 0.0 0.00 0.00 0.00 58 1016.6
20260504185018 18 1 0.0 0.0 0.00 0.00 0.00 58 1016.7
20260504184008 18 1 0.0 0.0 0.00 0.00 0.00 59 1016.6
20260504182958 18 1 0.0 0.0 0.00 0.00 0.00 60 1016.5
20260504181948 17 1 0.0 0.0 0.00 0.00 0.00 62 1016.5
20260504180938 17 1 0.0 0.0 0.00 0.00 0.00 63 1016.4
20260504175929 17 1 0.0 0.0 0.00 0.00 0.00 63 1016.4
20260504174918 16 1 0.0 0.0 0.00 0.00 0.00 64 1016.1
20260504173908 16 1 0.0 0.0 0.00 0.00 0.00 66 1016.0
20260504172858 16 1 0.0 0.0 0.00 0.00 0.00 66 1015.9
20260504171848 16 1 0.0 0.0 0.00 0.00 0.00 66 1015.9
20260504170838 16 1 0.0 0.0 0.00 0.00 0.00 67 1015.8
20260504150638 11 2 0.0 0.0 0.00 0.03 0.00 73 1015.6
20260504140538 8 2 0.0 0.0 0.00 0.03 0.00 79 1015.5
20260504130438 8 2 0.0 0.0 0.00 0.03 0.00 78 1015.0
20260504110238 8 2 0.0 0.0 0.00 0.03 0.00 78 1015.0
20260504100138 8 2 0.0 0.0 0.00 0.03 0.00 76 1014.9
20260504081958 10 2 0.0 0.0 0.00 0.03 0.00 74 1015.7
20260504080948 10 2 0.0 0.0 0.00 0.03 0.00 74 1015.7
20260504050648 12 2 0.0 0.0 0.00 0.03 0.03 68 1015.6
20260504045638 12 1 0.0 0.0 0.00 0.03 0.03 68 1015.6
20260504044628 12 2 0.0 0.0 0.00 0.03 0.03 67 1015.6
20260504043618 13 2 0.0 0.0 0.00 0.03 0.03 67 1015.5
20260504042608 13 1 0.0 0.0 0.00 0.03 0.03 66 1015.4
20260504041558 13 1 0.0 0.0 0.00 0.03 0.03 65 1015.2
20260504040548 13 1 0.0 0.0 0.00 0.03 0.03 65 1015.1
20260504035538 13 1 0.0 0.0 0.00 0.03 0.03 65 1015.0
20260504034528 14 2 0.0 0.0 0.00 0.03 0.03 65 1015.0
20260504033518 14 1 0.0 0.0 0.00 0.03 0.03 64 1014.9
20260504032508 14 1 0.0 0.0 0.00 0.03 0.03 64 1014.8
20260504031458 14 1 0.0 0.0 0.00 0.03 0.03 64 1014.9
20260504030448 15 1 0.0 0.0 0.00 0.03 0.03 62 1014.8
20260504025438 15 1 0.0 0.0 0.00 0.03 0.03 61 1014.6
20260504024428 15 1 0.0 0.0 0.00 0.03 0.03 60 1014.5
20260504023418 15 1 0.0 0.0 0.00 0.03 0.03 59 1014.5
20260504022408 16 1 0.0 0.0 0.00 0.03 0.03 57 1014.4
20260504021358 16 2 0.0 0.0 0.00 0.03 0.03 58 1014.4
20260504020348 16 2 0.0 0.0 0.00 0.03 0.03 58 1014.6
20260504015338 16 1 0.0 0.0 0.00 0.03 0.03 57 1014.7
20260504014328 16 1 0.0 0.0 0.00 0.03 0.03 57 1014.7
20260504013318 17 2 0.0 0.0 0.00 0.03 0.03 55 1014.7
20260504012308 17 1 0.0 0.0 0.00 0.03 0.03 53 1014.6
20260504011258 17 1 0.0 0.0 0.00 0.03 0.03 54 1014.7
20260504010248 17 2 0.0 0.0 0.00 0.03 0.03 53 1014.6
20260504005238 18 1 0.0 0.0 0.00 0.03 0.03 53 1014.6
20260504004228 18 1 0.0 0.0 0.00 0.03 0.03 51 1014.6
20260504003218 18 1 0.0 0.0 0.00 0.03 0.03 50 1014.5
20260504002208 18 1 0.0 0.0 0.00 0.03 0.03 50 1014.5
20260504001158 18 1 0.0 0.0 0.00 0.03 0.03 50 1014.5